Lid_Strength_Index
-0 -1 -0 2 10 11 14 12 9 9 8 5 5 6 7 7 9 10 1 0 -0 -0 -1 -1 -2 -1 -1 -1 -1 -1 -1 -1 -1 -1 -1 -1 -1 -2 -2 -2 -2 -2 -2 -2 -2 -2 -2 -2 -2
-1 0 1 6 13 15 14 10 10 8 6 5 5 6 7 9 5 4 3 -0 -1 -1 -1 -1 -2 -2 -1 -1 -1 -1 -1 -1 -1 -1 -1 -1 -1 -2 -2 -2 -2 -2 -2 -2 -2 -2 -2 -2 -2
-0 1 6 9 12 15 14 10 8 7 5 6 7 5 6 7 4 3 1 -0 -1 -1 -1 -1 -2 -2 -1 -1 -1 -1 -1 -1 -1 -1 -1 -1 -2 -2 -2 -2 -2 -2 -2 -2 -2 -2 -2 -2 -2
2 3 5 12 14 11 10 8 7 7 6 5 6 8 5 2 3 1 -0 -1 -0 -1 -1 -1 -1 -1 -1 -1 -1 -1 -1 -1 -1 -1 -1 -1 -2 -2 -2 -2 -2 -1 -2 -2 -2 -2 -2 -2 -2
2 5 12 13 13 10 8 7 6 7 7 7 6 8 7 3 1 0 0 -0 0 -0 -1 -1 -1 -1 -1 -1 -1 -1 -1 -1 -1 -1 -1 -1 -1 -2 -2 -2 -2 -2 -2 -2 -2 -2 -2 -2 -2
7 7 14 15 13 10 8 7 7 7 7 7 7 7 6 2 2 1 -0 -0 -1 -0 -1 -1 -1 -1 -1 -1 -1 -1 -1 -1 -1 -1 -1 -1 -1 -2 -2 -2 -2 -2 -2 -2 -2 -2 -2 -2 -2
8 10 13 13 13 12 10 6 7 7 7 7 5 8 6 3 1 0 0 -0 -0 -1 -1 -1 -1 -1 -1 -1 -1 -1 -1 -1 -1 -1 -1 -2 -2 -2 -2 -2 -2 -2 -2 -2 -2 -2 -2 -2 -1
6 8 12 12 13 13 8 7 6 7 7 4 4 8 8 4 1 0 0 0 -0 -0 -1 -1 -1 -1 -1 -1 -1 -1 -1 -1 -1 -1 -1 -1 -2 -2 -2 -2 -2 -2 -2 -2 -2 -2 -2 -2 -1
4 10 13 12 12 11 8 9 6 4 6 5 4 4 3 2 1 1 1 1 1 0 -0 -1 -1 -1 -1 -1 -1 -2 -1 -1 -1 -1 -1 -2 -2 -2 -2 -2 -2 -2 -2 -1 -1 -1 -2 -2 -1
7 10 12 8 9 10 8 8 6 7 7 7 6 4 3 2 2 3 3 3 2 1 0 -0 -1 -1 -1 -1 -2 -2 -2 -2 -2 -2 -2 -2 -2 -2 -2 -2 -2 -2 -1 -1 -1 -1 -1 -1 -1
7 10 8 8 7 7 8 8 6 7 9 6 7 5 3 3 3 3 2 2 2 1 0 -0 -1 -1 -1 -1 -1 -1 -1 -1 -1 -2 -2 -2 -1 -2 -1 -1 -1 -2 -1 -2 -1 -2 -2 -1 -2
9 7 7 8 7 7 8 7 7 7 7 4 4 4 3 4 3 3 3 2 2 1 0 -0 -1 -1 -1 -1 -1 -1 -1 -1 -1 -1 -2 -1 -1 -1 -1 -1 -1 -2 -2 -2 -2 -2 -2 -1 -1
8 8 7 7 7 7 6 8 8 7 5 4 3 4 4 3 3 2 2 1 1 1 1 -0 -1 -1 -1 -1 -1 -1 -1 -1 -1 -1 -2 -2 -1 -1 -1 -1 -1 -2 -2 -2 -2 -1 -1 -1 -2
6 7 7 7 7 7 8 8 7 6 4 5 4 4 4 3 3 2 2 2 1 1 1 -0 -0 -1 -1 -1 -1 -1 -1 -1 -1 -1 -1 -2 -1 -1 -1 -1 -1 -1 -2 -2 -1 -1 -1 -1 -1
6 9 8 8 8 9 7 10 10 6 5 5 5 4 4 3 3 2 2 2 1 1 0 0 -0 -1 -1 -1 -1 -1 -1 -1 -1 -1 -2 -2 -2 -2 -2 -1 -1 -1 -2 -2 -2 -1 -2 -1 -1
8 9 13 9 8 7 8 13 9 6 6 6 5 5 4 4 3 2 1 1 1 1 1 -0 -0 -0 -1 -1 -1 -1 -1 -1 -1 -2 -2 -2 -2 -2 -2 -1 -1 -2 -2 -2 -1 -1 -1 -1 -1
9 12 12 12 8 8 9 12 8 6 6 6 6 5 4 4 3 2 1 1 1 0 0 0 -0 -0 -0 -1 -1 -1 -1 -1 -2 -2 -2 -2 -2 -2 -2 -1 -1 -2 -2 -1 -1 -1 -1 -0 -1
12 11 11 12 10 9 10 11 8 7 7 6 6 5 5 4 4 2 2 1 1 0 0 0 -0 -0 -1 -1 -1 -1 -1 -1 -2 -1 -1 -1 -2 -2 -2 -1 -2 -2 -1 -1 -1 -0 -1 -1 -0
10 10 12 11 9 10 11 11 9 8 7 7 6 6 5 4 3 2 2 1 1 1 1 0 0 -0 -0 0 1 0 1 -0 -1 -1 -1 -2 -1 -1 -2 -1 -1 -2 -1 -1 -1 -1 -0 0 -1
10 11 13 11 9 10 11 11 9 8 8 6 6 6 5 4 4 3 2 2 1 1 1 0 0 -0 -0 -0 -0 -0 -0 -1 -1 -1 -1 -1 -1 -2 -1 -1 -1 -1 -1 -1 -1 -0 0 0 -0
9 11 12 12 10 9 10 12 11 8 7 6 5 5 4 4 4 3 3 2 2 1 1 1 0 -0 -0 -1 -0 -0 -0 -0 0 -0 -0 -1 -1 -1 -1 -1 -1 -2 -1 -1 -1 -1 -0 1 0
11 9 10 11 11 15 10 18 13 10 9 8 7 5 5 4 4 3 3 3 2 1 1 0 0 -0 -0 -1 -0 0 1 1 0 0 -0 -1 -1 -1 -1 -1 -1 -1 -1 -1 -1 -1 -0 -0 1
11 9 10 10 12 12 13 15 12 10 12 9 7 6 5 4 4 3 3 2 2 1 1 0 0 -0 -0 -0 -0 0 0 -0 0 -0 -0 -1 -1 -2 -1 -1 -1 -1 -1 -1 -1 -1 -1 -1 0
7 9 10 10 12 14 12 14 14 13 11 9 7 6 5 4 3 3 2 2 2 1 1 1 1 0 -0 -0 -0 -0 -0 0 1 1 0 -0 -1 -1 -1 -1 -1 -1 -1 -1 -1 -1 -1 -1 -0
7 10 15 16 17 14 12 14 11 9 8 8 8 6 5 4 4 3 3 3 2 2 1 1 1 1 0 0 0 0 0 0 0 -0 1 0 0 -0 -0 -1 -1 -1 -1 -1 -1 -1 -1 -1 -0
10 9 12 17 16 14 13 15 12 8 7 6 6 6 5 4 4 3 3 3 3 2 2 1 1 1 0 0 0 -0 -0 0 0 -0 0 0 -0 -1 -1 -2 -1 -1 -1 -1 -1 -1 -1 -1 -1
9 10 8 12 12 14 14 12 9 8 8 7 7 6 6 5 4 4 3 3 2 2 2 1 1 1 1 0 0 0 -0 -0 0 -0 -1 -0 -1 -1 -1 -1 -1 -1 -1 -1 -1 -0 -0 -1 -1
7 7 11 10 17 17 16 15 13 11 11 8 8 7 6 5 4 4 3 3 3 2 2 1 1 1 0 0 -0 0 -0 -0 -0 -0 -0 -0 -1 -1 -1 -1 -1 -1 -1 -1 -1 -0 -1 -0 -0
8 9 9 9 11 14 17 15 10 10 9 9 7 7 6 5 4 4 4 3 3 2 2 2 1 1 1 0 0 -0 0 -0 -0 -0 -0 -0 -1 -1 -1 -1 -1 -1 -1 -1 -1 -1 -0 -0 -0
7 7 8 11 14 13 14 14 8 8 8 8 8 7 6 5 5 4 4 3 2 2 2 2 1 1 1 0 0 0 -0 -0 0 0 -0 -1 -0 -1 -1 -1 -1 -0 -0 -1 -0 0 -0 0 0